Location: Mountain Grove
(34.0887°N, 86.6172°W)
Time: 23:48:04
(UTC+00:00)

Cosmos 2369 Rocket - Pass Details

Date: 14 July 2020
Orbit: 829 x 852 km, 71.0° (Epoch: 11 August)

Event Time Altitude Azimuth Distance (km) Brightness Sun altitude
Rises 06:10:19 0° 322° (NW) 3,381 5.9 -34.2°
Reaches altitude 10° 06:13:17 10° 307° (NW) 2,446 4.9 -34.1°
Enters shadow 06:14:42 15° 295° (WNW) 2,089 4.4 -34.1°
